Weather History for Toledo, OH

Change the Weather History Date:

Monday, April 16, 2012

  Actual Average Record
Temperature  
Mean Temperature 59 °F 50 °F  
Max Temperature 70 °F 60 °F 88 °F (2002)
Min Temperature 48 °F 39 °F 19 °F (2014)
Degree Days  
Heating Degree Days 6 16  
Month to date heating degree days 254 294  
Since 1 July heating degree days 4717 5720  
Cooling Degree Days 0 0  
Month to date cooling degree days 4 0  
Year to date cooling degree days 23 0  
Growing Degree Days 10 (Base 50)    
Moisture  
Dew Point 49 °F    
Average Humidity 54    
Maximum Humidity 68    
Minimum Humidity 40    
Precipitation  
Precipitation 0.01 in 0.11 in 0.77 in (1992)
Month to date precipitation 0.64 1.69  
Year to date precipitation 8.68 8.29  
Snow  
Snow 0.00 in 0.00 in - ()
Month to date snowfall 0.0 1.0  
Since 1 July snowfall 20.8 37.2  
Snow Depth 0.00 in    
Sea Level Pressure  
Sea Level Pressure 29.84 in    
Wind  
Wind Speed 19 mph (SW)    
Max Wind Speed 40 mph    
Max Gust Speed 53 mph    
Visibility 10 miles    
Events Rain    
T = Trace of Precipitation, MM = Missing Value Source: NWS Daily Summary

Daily Weather History Graph

Daily Weather History Graph

Search for Another Location

Airport:

Trip Planner

Search our weather history database for the weather conditions in past years. The results will help you decide how hot, cold, wet, or windy it might be!

Date:

Astronomy

Apr. 16, 2012 Rise Set
Actual Time 6:53 AM EDT 8:17 PM EDT
Civil Twilight 6:24 AM EDT 8:46 PM EDT
Nautical Twilight 5:49 AM EDT 9:21 PM EDT
Astronomical Twilight 5:12 AM EDT 9:58 PM EDT
Moon 4:24 AM EDT (4/16) 4:08 PM EDT (4/16)
Length of Visible Light 14h 22m
Length of Day
13h 24m
Waning Crescent, 19% of the Moon is Illuminated
Apr 16
Waning Crescent
Apr 21
New
Apr 29
First Quarter
May 5
Full
May 12
Last Quarter

Hourly Weather History & Observations

Time (EDT) Temp. Dew Point Humidity Pressure Visibility Wind Dir Wind Speed Gust Speed Precip Events Conditions
12:52 AM 68.0 °F 53.1 °F 59% 29.78 in 10.0 mi South 11.5 mph - N/A   Clear
1:52 AM 69.1 °F 53.1 °F 57% 29.76 in 10.0 mi SSW 13.8 mph 21.9 mph N/A   Clear
2:52 AM 68.0 °F 54.0 °F 61% 29.74 in 10.0 mi SSW 10.4 mph 23.0 mph N/A   Clear
3:52 AM 66.9 °F 54.0 °F 63% 29.72 in 10.0 mi South 10.4 mph 19.6 mph N/A   Clear
4:52 AM 66.9 °F 55.0 °F 66% 29.71 in 10.0 mi SSW 10.4 mph 20.7 mph N/A   Clear
5:52 AM 68.0 °F 55.0 °F 63% 29.71 in 10.0 mi SSW 19.6 mph 27.6 mph N/A   Mostly Cloudy
6:52 AM 69.1 °F 55.9 °F 63% 29.72 in 10.0 mi SSW 16.1 mph 31.1 mph N/A   Clear
7:52 AM 68.0 °F 57.0 °F 68% 29.75 in 10.0 mi SW 20.7 mph 29.9 mph 0.00 in   Overcast
8:52 AM 64.0 °F 60.1 °F 87% 29.70 in 10.0 mi South 19.6 mph 26.5 mph 0.00 in Rain Light Rain
9:52 AM 64.9 °F 59.0 °F 81% 29.69 in 10.0 mi SSW 19.6 mph 36.8 mph 0.01 in Rain Light Rain
9:59 AM 66.2 °F 59.0 °F 78% 29.71 in 10.0 mi SSW 18.4 mph 32.2 mph 0.00 in   Overcast
10:52 AM 68.0 °F 57.0 °F 68% 29.73 in 10.0 mi SSW 20.7 mph 39.1 mph 0.00 in   Scattered Clouds
11:52 AM 66.9 °F 48.9 °F 52% 29.75 in 10.0 mi SW 25.3 mph 49.5 mph N/A   Partly Cloudy
12:52 PM 69.1 °F 48.9 °F 49% 29.76 in 10.0 mi WSW 33.4 mph 47.2 mph N/A   Mostly Cloudy
1:52 PM 69.1 °F 45.0 °F 42% 29.78 in 10.0 mi SW 29.9 mph 50.6 mph N/A   Scattered Clouds
2:52 PM 66.9 °F 43.0 °F 42% 29.82 in 10.0 mi SW 32.2 mph 43.7 mph N/A   Overcast
3:52 PM 64.0 °F 46.0 °F 52% 29.86 in 10.0 mi WSW 24.2 mph 42.6 mph N/A   Overcast
4:52 PM 62.1 °F 45.0 °F 53% 29.88 in 10.0 mi WSW 27.6 mph 32.2 mph N/A   Overcast
5:52 PM 60.1 °F 41.0 °F 49% 29.93 in 10.0 mi WSW 28.8 mph 40.3 mph N/A   Mostly Cloudy
6:52 PM 57.0 °F 39.9 °F 53% 29.98 in 10.0 mi West 18.4 mph 33.4 mph N/A   Overcast
7:52 PM 54.0 °F 37.0 °F 53% 30.03 in 10.0 mi West 21.9 mph 34.5 mph N/A   Partly Cloudy
8:52 PM 52.0 °F 37.0 °F 57% 30.09 in 10.0 mi West 15.0 mph - N/A   Clear
9:52 PM 51.1 °F 37.9 °F 61% 30.12 in 10.0 mi West 9.2 mph - N/A   Clear
10:52 PM 50.0 °F 37.9 °F 63% 30.14 in 10.0 mi WSW 10.4 mph - N/A   Clear
11:52 PM 50.0 °F 37.9 °F 63% 30.17 in 10.0 mi WSW 10.4 mph - N/A   Clear